ABS-3

Last updated on Jan. 12, 2018, 12:19 a.m. UTC

1 24901U 97042A   18011.57643419  .00000032  00000-0  00000-0 0  9993
2 24901   5.2677  62.1313 0009321 206.2696 258.2421  0.99260654 74676
UTC
Height (km)
Latitude
Longitude
Inclination
Orbital Period
UTC large
Height (km)
Speed (km/s)
/
Latitude / Longitude
Inclination (degrees)
Orbital Period (minutes)
Azimuth
Elevation
Range (km)
Doppler Factor
iOS Compass Heading
iOS Angle

Next 30 passes for location: Hong Kong

Rise time Rise Azimuth (degrees) Set time Set Azimuth (degrees) Duration Max altitude (degrees)

No matching passes for this satellites